Home > Weather > Punta Arenas > Past weeks

Flag for Chile Weather for the Past 2 Weeks in Punta Arenas, Chile

Now
46 °F

Passing clouds.


Feels Like: 37 °F
Forecast: 45 / 53 °F
Wind: 28 mph from West

Location: Punta Arenas Airport

Current Time: Feb 9, 2016 at 9:13:45 AM

Latest Report: Feb 9, 2016 at 8:00 AM


Visibility: N/A

Pressure: 29.53 "Hg

Humidity: 57%

Dew point: 32 °F

Location of Punta ArenasLocation

Historic Weather in Punta Arenas — Graph

°F

Punta Arenas Temperature Yesterday

Maximum temperature yesterday: 59 °F (at 1:00 PM)
Minimum temperature yesterday: 50 °F (at 1:00 AM)
Average temperature yesterday: 53 °F

High & Low Weather Summary for the Past Weeks

 TemperatureHumidityPressure
High73 °F (Feb 6, 5:00 PM)100% (Feb 3, 1:00 AM)30.24 "Hg (Feb 3, 1:00 AM)
Low41 °F (Feb 4, 5:00 AM)27% (Feb 6, 5:00 PM)29.27 "Hg (Feb 9, 1:00 AM)
Average55 °F64%29.77 "Hg
* Reported Jan 25 7:00 AM — Feb 9 7:00 AM, Punta Arenas, Weather by CustomWeather, © 2016

Note: Actual official high and low records may vary slightly from our data, if they occured in-between our weather recording intervals... More about our weather records

Advertising

Punta Arenas Weather History for the Previous 24 Hours

 ConditionsComfort  
Time TempWeatherWind HumidityBarometerVisibility
7:00 AM
Tue, Feb 9
45 °FPassing clouds.20 mph66%29.50 "HgN/A
6:00 AM45 °FPassing clouds.24 mph71%29.45 "HgN/A
5:00 AM48 °FPassing clouds.40 mph71%29.36 "HgN/A
4:00 AM48 °FSprinkles. Passing clouds.36 mph87%29.33 "HgN/A
3:00 AM50 °FPassing clouds.30 mph82%29.27 "HgN/A
2:00 AM52 °FPassing clouds.38 mph77%29.27 "HgN/A
1:00 AM52 °FPassing clouds.31 mph72%29.27 "HgN/A
12:00 AM52 °FPartly cloudy.23 mph67%29.30 "HgN/A
11:00 PM
Mon, Feb 8
52 °FSprinkles. Partly cloudy.31 mph67%29.30 "HgN/A
10:00 PM54 °FPassing clouds.18 mph63%29.36 "HgN/A
9:00 PM54 °FPartly sunny.26 mph58%29.36 "HgN/A
8:00 PM54 °FPartly sunny.21 mph63%29.39 "HgN/A
7:00 PM55 °FPartly sunny.17 mph59%29.42 "HgN/A
6:00 PM54 °FPartly sunny.17 mph58%29.42 "HgN/A
5:00 PM55 °FPartly sunny.17 mph55%29.42 "HgN/A
4:00 PM57 °FPartly sunny.25 mph48%29.45 "HgN/A
3:00 PM59 °FPartly sunny.23 mph48%29.45 "HgN/A
2:00 PM59 °FScattered clouds.25 mph48%29.45 "HgN/A
1:00 PM59 °FScattered clouds.28 mph48%29.45 "HgN/A
12:00 PM57 °FBroken clouds.28 mph55%29.45 "HgN/A
11:00 AM54 °FBroken clouds.21 mph67%29.45 "HgN/A
10:00 AM55 °FPartly sunny.20 mph63%29.42 "HgN/A
9:00 AM52 °FPartly sunny.17 mph77%29.42 "HgN/A
Weather by CustomWeather, © 2016

See weather overviewHow to use our weather pages